Location: Pian di Sc�
(43.6333°N, 11.5500°E)
Time: 18:05:54
(UTC+00:00)

Cosmos 2082 - Pass Details

Date: 07 August 2020
Orbit: 834 x 855 km, 71.0° (Epoch: 20 September)

Event Time Altitude Azimuth Distance (km) Brightness Sun altitude
Exits shadow 01:52:58 41° 224° (SW) 1,191 4.0 -20.5°
Maximum altitude 01:54:56 72° 296° (WNW) 880 3.7 -20.3°
Drops below altitude 10° 02:00:33 10° 21° (NNE) 2,452 7.2 -19.7°
Sets 02:03:01 0° 24° (NNE) 3,390 8.2 -19.4°
